Lexington Weather

Lexington, Massachusetts, USA

49°F
12/8/2022 2:32pm 
  • Lexington Conditions: Clear
  • Temperature: 48.9°F / 9.4°CColder 1.1°F than last hour.
  • Dew Point: 36.1°FIncreased 0.7°Fsince last hour.
  • Relative Humidity: 61%Increased 4.0% since last hour.
  • Wind: Wind from NNW NNW 4 mph, 10-min avg: 3 mph, gust: 10 mph
  • Barometer: 30.07 in Steady
  • Visibility: 10 miles
  • Rain Today: 0.00 in
  •   

Warning: Undefined variable $rc in /homepages/6/d276339138/htdocs/weather/20190804/ssi/nwsProduct.php on line 323

Warning: Undefined variable $rc in /homepages/6/d276339138/htdocs/weather/20190804/ssi/nwsProduct.php on line 325

Warning: Undefined variable $rc in /homepages/6/d276339138/htdocs/weather/20190804/ssi/nwsProduct.php on line 323

Warning: Undefined variable $rc in /homepages/6/d276339138/htdocs/weather/20190804/ssi/nwsProduct.php on line 325

Warning: Undefined variable $rc in /homepages/6/d276339138/htdocs/weather/20190804/ssi/nwsProduct.php on line 323

Warning: Undefined variable $rc in /homepages/6/d276339138/htdocs/weather/20190804/ssi/nwsProduct.php on line 325

Warning: Undefined variable $rc in /homepages/6/d276339138/htdocs/weather/20190804/ssi/nwsProduct.php on line 323

Warning: Undefined variable $rc in /homepages/6/d276339138/htdocs/weather/20190804/ssi/nwsProduct.php on line 325

Warning: Undefined variable $rc in /homepages/6/d276339138/htdocs/weather/20190804/ssi/nwsProduct.php on line 323

Warning: Undefined variable $rc in /homepages/6/d276339138/htdocs/weather/20190804/ssi/nwsProduct.php on line 325

Warning: Undefined variable $rc in /homepages/6/d276339138/htdocs/weather/20190804/ssi/nwsProduct.php on line 323

Warning: Undefined variable $rc in /homepages/6/d276339138/htdocs/weather/20190804/ssi/nwsProduct.php on line 325

Warning: Undefined variable $rc in /homepages/6/d276339138/htdocs/weather/20190804/ssi/nwsProduct.php on line 323

Warning: Undefined variable $rc in /homepages/6/d276339138/htdocs/weather/20190804/ssi/nwsProduct.php on line 325

Regional Weather Roundup
for Boston, MA

        
000
ASUS41 KBOX 041310
RWRBOX

REGIONAL WEATHER ROUNDUP
NATIONAL WEATHER SERVICE BOSTON/NORTON MA
800 AM EST SUN DEC 04 2022

NOTE:  "FAIR" INDICATES FEW OR NO CLOUDS BELOW 12,000 FEET WITH NO 
SIGNIFICANT WEATHER AND/OR OBSTRUCTIONS TO VISIBILITY.

MAZALL-041400-
EASTERN MASSACHUSETTS
  
CITY           SKY/WX    TMP DP  RH WIND       PRES   REMARKS
BOSTON         PTCLDY    38  21  50 W10       30.15R WCI  31          
BEVERLY        CLEAR     35  21  56 W6        30.13R WCI  30          
LAWRENCE       PTCLDY    36  20  52 W6        30.15R WCI  31          
BEDFORD        CLEAR     34  22  61 SW6       30.14R WCI  29          
NORWOOD        CLEAR     35  24  64 W6        30.16R WCI  30          
MARSHFIELD       N/A     34  25  69 VRB3      30.15R                  
PLYMOUTH       CLEAR     36  23  59 W8        30.14R WCI  30          
TAUNTON          N/A    N/A N/A N/A MISG      30.17R                  
NEW BEDFORD    CLEAR     36  25  64 W7        30.17R WCI  30          
$$

MAZALL-041400-
CAPE COD AND THE ISLANDS
  
CITY           SKY/WX    TMP DP  RH WIND       PRES   REMARKS
FALMOUTH       CLEAR     36  23  60 NW12      30.14R WCI  27          
HYANNIS        CLEAR     37  23  56 VRB7      30.12R WCI  32          
CHATHAM        CLEAR     41  26  55 W9        30.13R                  
PROVINCETOWN   PTCLDY    40  25  55 NW18G24   30.13R WCI  31          
NANTUCKET      CLEAR     43  26  51 NW20G26   30.14R                  
MARTHAS VNYRD  CLEAR     40  24  53 NW17G24   30.15R WCI  31          
$$
 
MAZALL-041400-
CENTRAL AND WESTERN MASSACHUSETTS
  
CITY           SKY/WX    TMP DP  RH WIND       PRES   REMARKS
WORCESTER      CLEAR     34  20  56 CALM      30.11R                  
FITCHBURG      CLEAR     29  22  75 CALM      30.15R                  
ORANGE         CLOUDY    35  20  54 VRB3      30.14R                  
SPRINGFIELD    MOCLDY    36  19  49 NW15      30.15R WCI  27          
WESTFIELD      MOCLDY    37  20  50 NW12G24   30.18R WCI  29          
NORTH ADAMS    CLOUDY    34  21  59 W12       30.16R WCI  25          
PITTSFIELD     CLOUDY    32  20  61 W16G26    30.13R WCI  21          
$$
 
RIZALL-041400-
RHODE ISLAND
  
CITY           SKY/WX    TMP DP  RH WIND       PRES   REMARKS
PROVIDENCE     PTCLDY    34  23  64 W5        30.19R WCI  30          
NEWPORT        CLEAR     36  24  62 W8        30.17R WCI  30          
BLOCK ISLAND   CLEAR     37  23  56 NW14G25   30.20R WCI  28          
SMITHFIELD     CLEAR     30  25  81 W5        30.16R WCI  25          
WESTERLY       CLEAR     35  25  66 W5        30.20R WCI  31          
$$
 
CTZALL-041400-
CONNECTICUT
  
CITY           SKY/WX    TMP DP  RH WIND       PRES   REMARKS
BRADLEY INTL   MOCLDY    38  20  48 NW13G24   30.19R WCI  30          
HARTFORD       MOCLDY    38  23  55 CALM      30.20R                  
BRIDGEPORT     CLEAR     37  23  56 NW3       30.22R                  
DANBURY        CLEAR     36  19  50 NW3       30.20S                  
GROTON         CLEAR     37  26  64 W5        30.20R                  
NEW HAVEN      CLEAR     40  26  57 VRB3      30.21R                  
CHESTER        FAIR     N/A N/A N/A W3        30.19R                  
MERIDEN        CLEAR     31  26  82 CALM      30.20R                  
WILLIMANTIC    PTCLDY    35  23  61 VRB3      30.18R                  
OXFORD         CLEAR     32  22  66 W5        30.19R WCI  27          
$$

MEZ002-015-021-024-NHZ003-005-008-011-012-014-VTZ005-008-041400-
NORTHERN NEW ENGLAND
  
CITY           SKY/WX    TMP DP  RH WIND       PRES   REMARKS
PORTLAND ME    PTCLDY    35  20  54 NW10      30.09R WCI  27          
BANGOR ME      PTCLDY    33  16  49 W10G23    30.05R WCI  25          
CONCORD NH     CLOUDY    35  19  52 NW14      30.11R WCI  26          
MANCHESTER NH  CLOUDY    37  18  46 W6        30.11R                  
NASHUA NH      CLEAR     35  19  52 W3        30.15R                  
PORTSMOUTH NH  PTCLDY    36  19  48 W9        30.11R WCI  29          
JAFFREY NH     PTCLDY    34  17  50 NW5       30.10R WCI  30          
KEENE NH       CLOUDY    36  18  48 NW12G17     N/A  WCI  28          
BURLINGTON VT  CLOUDY    30  18  60 NW10      30.18S WCI  21          
MT. WASHINGTON BLWGSNOW   5   5 100 W77G94      N/A  VSB 0   WCI -29  
$$

NYZ052-076-041400-
EASTERN NEW YORK
  
CITY           SKY/WX    TMP DP  RH WIND       PRES   REMARKS
ALBANY         MOCLDY    36  23  59 W8        30.20R WCI  30          
NEW YORK CITY  PTCLDY    40  22  48 NW9       30.23S                  
$$
 
ANZALL-041400-
MARINE OBSERVATIONS
  
STATION/POSITION TIME  TEMP    WIND        PRES    VSBY  WAVE
                       AIR SEA DIR/SP/G                  HT/PER
                 (UTC) (F)     (DEG/KT/KT) (MB)    (MI)  (FT/S)
BOSTON BUOY      1250      51  300/ 17/ 21 1020.8
BUZZARDS BAY     1200   39     300/ 17/ 18 1021.5R
NANTUCKET SOUND  1300   41     300/ 19/ 23 1020.6
MASS BAY-STELLWA 1104   41 50  300/ 14/ 17 1017.6R  1 7/8  2/ 4
ISLE OF SHOALS   1200   38     300/ 19/ 21 1018.2R
S OF BLOCK IS    1256      54                N/A           7/ 8
$$

......................KEY.........................
  SKY/WX - SKY CONDITION/PRESENT WEATHER
  TMP    - TEMPERATURE IN FAHRENHEIT
  DWPT   - DEWPOINT IN FAHRENHEIT
  RH     - RELATIVE HUMIDITY IN PERCENT
  WIND   - DIRECTION AND SPEED IN MPH
  PRES   - MEAN SEA LEVEL PRESSURE IN INCHES OF HG
  WCI    - WIND CHILL INDEX
  VSB    - VISIBILITY IN MILES
  HX     - HEAT INDEX
  TC     - TEMPERATURE IN CELSIUS
  VRB    - VARIABLE WIND DIRECTION
  N/A    - NOT AVAILABLE
  
      

Other recent Regional Weather Roundups

Thu Dec 8, 2:10pm

Thu Dec 8, 1:10pm

Thu Dec 8, 12:10pm

Thu Dec 8, 11:10am

Thu Dec 8, 10:10am

Thu Dec 8, 9:10am

Thu Dec 8, 8:10am

Thu Dec 8, 7:10am

Thu Dec 8, 6:10am

Thu Dec 8, 5:10am

Thu Dec 8, 4:10am

Thu Dec 8, 3:10am

Thu Dec 8, 2:10am

Thu Dec 8, 1:10am

Thu Dec 8, 12:10am

Wed Dec 7, 11:10pm

Wed Dec 7, 10:10pm

Wed Dec 7, 9:10pm

Wed Dec 7, 8:10pm

Wed Dec 7, 7:10pm

Wed Dec 7, 6:10pm

Wed Dec 7, 5:10pm

Wed Dec 7, 4:10pm

Wed Dec 7, 3:10pm

Wed Dec 7, 2:10pm

Wed Dec 7, 1:10pm

Wed Dec 7, 12:10pm

Wed Dec 7, 11:10am

Wed Dec 7, 10:10am

Wed Dec 7, 9:10am

Wed Dec 7, 8:10am

Wed Dec 7, 7:10am

Wed Dec 7, 6:10am

Wed Dec 7, 5:10am

Wed Dec 7, 4:10am

Wed Dec 7, 3:10am

Wed Dec 7, 2:10am

Wed Dec 7, 1:10am

Wed Dec 7, 12:10am

Tue Dec 6, 11:10pm

Tue Dec 6, 10:10pm

Tue Dec 6, 9:10pm

Tue Dec 6, 8:10pm

Tue Dec 6, 7:10pm

Tue Dec 6, 6:10pm

Tue Dec 6, 5:10pm

Tue Dec 6, 4:10pm

Tue Dec 6, 3:10pm

Tue Dec 6, 2:10pm

Tue Dec 6, 1:10pm

Tue Dec 6, 12:10pm

Tue Dec 6, 11:10am

Tue Dec 6, 10:10am

Tue Dec 6, 9:10am

Tue Dec 6, 8:10am

Tue Dec 6, 7:10am

Tue Dec 6, 6:10am

Tue Dec 6, 5:10am

Tue Dec 6, 4:10am

Tue Dec 6, 3:10am

Tue Dec 6, 2:10am

Tue Dec 6, 1:10am

Tue Dec 6, 12:10am

Mon Dec 5, 11:10pm

Mon Dec 5, 10:10pm

Mon Dec 5, 9:10pm

Mon Dec 5, 8:10pm

Mon Dec 5, 7:10pm

Mon Dec 5, 6:10pm

Mon Dec 5, 5:10pm

Mon Dec 5, 4:10pm

Mon Dec 5, 3:10pm

Mon Dec 5, 2:10pm

Mon Dec 5, 1:10pm

Mon Dec 5, 12:10pm

Mon Dec 5, 11:10am

Mon Dec 5, 10:10am

Mon Dec 5, 9:10am

Mon Dec 5, 8:10am

Mon Dec 5, 7:10am

Mon Dec 5, 6:10am

Mon Dec 5, 5:10am

Mon Dec 5, 4:10am

Mon Dec 5, 3:10am

Mon Dec 5, 2:10am

Mon Dec 5, 1:10am

Mon Dec 5, 12:10am

Sun Dec 4, 11:10pm

Sun Dec 4, 10:10pm

Sun Dec 4, 9:10pm

Sun Dec 4, 8:10pm

Sun Dec 4, 7:10pm

Sun Dec 4, 6:10pm

Sun Dec 4, 5:10pm

Sun Dec 4, 4:10pm

Sun Dec 4, 3:10pm

Sun Dec 4, 2:10pm

Sun Dec 4, 1:10pm

Sun Dec 4, 12:10pm

Sun Dec 4, 11:10am

Sun Dec 4, 10:10am

Sun Dec 4, 9:10am

Sun Dec 4, 7:10am

Sun Dec 4, 6:10am

Sun Dec 4, 5:10am

Sun Dec 4, 4:10am

Sun Dec 4, 3:10am

Sun Dec 4, 2:10am

Sun Dec 4, 1:10am

Sun Dec 4, 12:10am

Sat Dec 3, 11:10pm

Sat Dec 3, 10:10pm

Sat Dec 3, 9:10pm

Sat Dec 3, 8:10pm

Sat Dec 3, 7:10pm

Sat Dec 3, 6:10pm

Sat Dec 3, 5:10pm

Sat Dec 3, 4:10pm

Sat Dec 3, 3:10pm

Sat Dec 3, 2:10pm

Sat Dec 3, 1:10pm

Sat Dec 3, 12:10pm

Sat Dec 3, 11:10am

Sat Dec 3, 10:10am

Sat Dec 3, 9:10am

Sat Dec 3, 8:10am

Sat Dec 3, 7:10am

Sat Dec 3, 6:10am

Sat Dec 3, 5:10am

Sat Dec 3, 4:10am

Sat Dec 3, 3:10am

Sat Dec 3, 2:10am

Sat Dec 3, 1:10am

Sat Dec 3, 12:10am

Fri Dec 2, 11:10pm

Fri Dec 2, 10:10pm

Fri Dec 2, 9:10pm

Fri Dec 2, 8:10pm

Fri Dec 2, 7:10pm

Fri Dec 2, 6:10pm

Fri Dec 2, 5:10pm

Fri Dec 2, 4:10pm

Fri Dec 2, 3:10pm

Fri Dec 2, 2:10pm

Fri Dec 2, 1:10pm

Fri Dec 2, 12:10pm

Fri Dec 2, 11:10am

Fri Dec 2, 10:10am

Fri Dec 2, 9:10am

Fri Dec 2, 8:10am

Fri Dec 2, 7:10am

Fri Dec 2, 6:10am

Fri Dec 2, 5:10am

Fri Dec 2, 4:10am

Fri Dec 2, 3:10am

Fri Dec 2, 2:10am

Fri Dec 2, 1:10am

Fri Dec 2, 12:10am

Thu Dec 1, 11:10pm

Thu Dec 1, 10:10pm

Thu Dec 1, 9:10pm

Thu Dec 1, 8:10pm

Thu Dec 1, 7:10pm

Thu Dec 1, 6:10pm

Thu Dec 1, 5:10pm

Thu Dec 1, 4:10pm

Thu Dec 1, 3:10pm

Meta data:

ID: 9361fd9e-693d-4644-9df1-9f8876cd368e
Link: https://api.weather.gov/products/9361fd9e-693d-4644-9df1-9f8876cd368e